Year,Month,Day,Hour,Minute,Value (Times are PST for temperature in C)
2012,10,05,00,00,4.70
2012,10,05,00,01,4.70
2012,10,05,00,02,4.70
2012,10,05,00,03,4.70
2012,10,05,00,04,4.70
2012,10,05,00,05,4.60
2012,10,05,00,06,4.60
2012,10,05,00,07,4.60
2012,10,05,00,08,4.60
2012,10,05,00,09,4.60
2012,10,05,00,10,4.60
2012,10,05,00,11,4.60
2012,10,05,00,12,4.50
2012,10,05,00,13,4.50
2012,10,05,00,14,4.50
2012,10,05,00,15,4.50
2012,10,05,00,16,4.50
2012,10,05,00,17,4.50
2012,10,05,00,18,4.40
2012,10,05,00,19,4.40
2012,10,05,00,20,4.40
2012,10,05,00,21,4.40
2012,10,05,00,22,4.40
2012,10,05,00,23,4.40
2012,10,05,00,24,4.40
2012,10,05,00,25,4.40
2012,10,05,00,26,4.30
2012,10,05,00,27,4.30
2012,10,05,00,28,4.30
2012,10,05,00,29,4.30
2012,10,05,00,30,4.30
2012,10,05,00,31,4.30
2012,10,05,00,32,4.30
2012,10,05,00,33,4.30
2012,10,05,00,34,4.30
2012,10,05,00,35,4.30
2012,10,05,00,36,4.20
2012,10,05,00,37,4.20
2012,10,05,00,38,4.20
2012,10,05,00,39,4.20
2012,10,05,00,40,4.20
2012,10,05,00,41,4.20
2012,10,05,00,42,4.20
2012,10,05,00,43,4.20
2012,10,05,00,44,4.20
2012,10,05,00,45,4.20
2012,10,05,00,46,4.20
2012,10,05,00,47,4.20
2012,10,05,00,48,4.20
2012,10,05,00,49,4.20
2012,10,05,00,50,4.20
2012,10,05,00,51,4.20
2012,10,05,00,52,4.20
2012,10,05,00,53,4.10
2012,10,05,00,54,4.10
2012,10,05,00,55,4.10
2012,10,05,00,56,4.10
2012,10,05,00,57,4.10
2012,10,05,00,58,4.10
2012,10,05,00,59,4.10
2012,10,05,01,00,4.10
2012,10,05,01,01,4.10
2012,10,05,01,02,4.00
2012,10,05,01,03,4.00
2012,10,05,01,04,4.00
2012,10,05,01,05,4.00
2012,10,05,01,06,4.00
2012,10,05,01,07,3.90
2012,10,05,01,08,3.90
2012,10,05,01,09,3.90
2012,10,05,01,10,3.90
2012,10,05,01,11,3.90
2012,10,05,01,12,3.90
2012,10,05,01,13,3.90
2012,10,05,01,14,3.90
2012,10,05,01,15,3.80
2012,10,05,01,16,3.80
2012,10,05,01,17,3.80
2012,10,05,01,18,3.80
2012,10,05,01,19,3.80
2012,10,05,01,20,3.80
2012,10,05,01,21,3.80
2012,10,05,01,22,3.80
2012,10,05,01,23,3.70
2012,10,05,01,24,3.70
2012,10,05,01,25,3.70
2012,10,05,01,26,3.70
2012,10,05,01,27,3.70
2012,10,05,01,28,3.70
2012,10,05,01,29,3.70
2012,10,05,01,30,3.60
2012,10,05,01,31,3.60
2012,10,05,01,32,3.60
2012,10,05,01,33,3.60
2012,10,05,01,34,3.60
2012,10,05,01,35,3.60
2012,10,05,01,36,3.60
2012,10,05,01,37,3.60
2012,10,05,01,38,3.60
2012,10,05,01,39,3.60
2012,10,05,01,40,3.60
2012,10,05,01,41,3.60
2012,10,05,01,42,3.60
2012,10,05,01,43,3.60
2012,10,05,01,44,3.60
2012,10,05,01,45,3.60
2012,10,05,01,46,3.60
2012,10,05,01,47,3.60
2012,10,05,01,48,3.60
2012,10,05,01,49,3.60
2012,10,05,01,50,3.60
2012,10,05,01,51,3.60
2012,10,05,01,52,3.60
2012,10,05,01,53,3.60
2012,10,05,01,54,3.60
2012,10,05,01,55,3.60
2012,10,05,01,56,3.60
2012,10,05,01,57,3.50
2012,10,05,01,58,3.50
2012,10,05,01,59,3.50
2012,10,05,02,00,3.50
2012,10,05,02,01,3.50
2012,10,05,02,02,3.50
2012,10,05,02,03,3.50
2012,10,05,02,04,3.50
2012,10,05,02,05,3.50
2012,10,05,02,06,3.50
2012,10,05,02,07,3.50
2012,10,05,02,08,3.50
2012,10,05,02,09,3.50
2012,10,05,02,10,3.50
2012,10,05,02,11,3.50
2012,10,05,02,12,3.50
2012,10,05,02,13,3.50
2012,10,05,02,14,3.40
2012,10,05,02,15,3.40
2012,10,05,02,16,3.40
2012,10,05,02,17,3.40
2012,10,05,02,18,3.40
2012,10,05,02,19,3.30
2012,10,05,02,20,3.30
2012,10,05,02,21,3.30
2012,10,05,02,22,3.30
2012,10,05,02,23,3.30
2012,10,05,02,24,3.30
2012,10,05,02,25,3.30
2012,10,05,02,26,3.30
2012,10,05,02,27,3.30
2012,10,05,02,28,3.30
2012,10,05,02,29,3.30
2012,10,05,02,30,3.30
2012,10,05,02,31,3.30
2012,10,05,02,32,3.30
2012,10,05,02,33,3.30
2012,10,05,02,34,3.30
2012,10,05,02,35,3.30
2012,10,05,02,36,3.30
2012,10,05,02,37,3.30
2012,10,05,02,38,3.30
2012,10,05,02,39,3.30
2012,10,05,02,40,3.30
2012,10,05,02,41,3.30
2012,10,05,02,42,3.30
2012,10,05,02,43,3.30
2012,10,05,02,44,3.30
2012,10,05,02,45,3.30
2012,10,05,02,46,3.30
2012,10,05,02,47,3.30
2012,10,05,02,48,3.20
2012,10,05,02,49,3.20
2012,10,05,02,50,3.20
2012,10,05,02,51,3.20
2012,10,05,02,52,3.20
2012,10,05,02,53,3.20
2012,10,05,02,54,3.10
2012,10,05,02,55,3.10
2012,10,05,02,56,3.10
2012,10,05,02,57,3.10
2012,10,05,02,58,3.10
2012,10,05,02,59,3.10
2012,10,05,03,00,3.10
2012,10,05,03,01,3.10
2012,10,05,03,02,3.10
2012,10,05,03,03,3.10
2012,10,05,03,04,3.10
2012,10,05,03,05,3.00
2012,10,05,03,06,3.00
2012,10,05,03,07,3.00
2012,10,05,03,08,3.00
2012,10,05,03,09,3.00
2012,10,05,03,10,3.00
2012,10,05,03,11,3.00
2012,10,05,03,12,3.00
2012,10,05,03,13,3.00
2012,10,05,03,14,2.90
2012,10,05,03,15,2.90
2012,10,05,03,16,2.90
2012,10,05,03,17,2.90
2012,10,05,03,18,2.90
2012,10,05,03,19,2.90
2012,10,05,03,20,2.90
2012,10,05,03,21,2.90
2012,10,05,03,22,2.90
2012,10,05,03,23,2.90
2012,10,05,03,24,2.90
2012,10,05,03,25,2.90
2012,10,05,03,26,2.90
2012,10,05,03,27,2.90
2012,10,05,03,28,2.90
2012,10,05,03,29,2.80
2012,10,05,03,30,2.80
2012,10,05,03,31,2.80
2012,10,05,03,32,2.80
2012,10,05,03,33,2.80
2012,10,05,03,34,2.80
2012,10,05,03,35,2.80
2012,10,05,03,36,2.80
2012,10,05,03,37,2.80
2012,10,05,03,38,2.80
2012,10,05,03,39,2.80
2012,10,05,03,40,2.80
2012,10,05,03,41,2.80
2012,10,05,03,42,2.80
2012,10,05,03,43,2.80
2012,10,05,03,44,2.80
2012,10,05,03,45,2.80
2012,10,05,03,46,2.80
2012,10,05,03,47,2.80
2012,10,05,03,48,2.80
2012,10,05,03,49,2.80
2012,10,05,03,50,2.80
2012,10,05,03,51,2.80
2012,10,05,03,52,2.80
2012,10,05,03,53,2.80
2012,10,05,03,54,2.80
2012,10,05,03,55,2.80
2012,10,05,03,56,2.80
2012,10,05,03,57,2.80
2012,10,05,03,58,2.80
2012,10,05,03,59,2.70
2012,10,05,04,00,2.70
2012,10,05,04,01,2.70
2012,10,05,04,02,2.70
2012,10,05,04,03,2.70
2012,10,05,04,04,2.70
2012,10,05,04,05,2.70
2012,10,05,04,06,2.70
2012,10,05,04,07,2.70
2012,10,05,04,08,2.70
2012,10,05,04,09,2.60
2012,10,05,04,10,2.60
2012,10,05,04,11,2.60
2012,10,05,04,12,2.60
2012,10,05,04,13,2.60
2012,10,05,04,14,2.50
2012,10,05,04,15,2.50
2012,10,05,04,16,2.50
2012,10,05,04,17,2.50
2012,10,05,04,18,2.50
2012,10,05,04,19,2.50
2012,10,05,04,20,2.40
2012,10,05,04,21,2.40
2012,10,05,04,22,2.40
2012,10,05,04,23,2.40
2012,10,05,04,24,2.40
2012,10,05,04,25,2.40
2012,10,05,04,26,2.40
2012,10,05,04,27,2.40
2012,10,05,04,28,2.40
2012,10,05,04,29,2.30
2012,10,05,04,30,2.30
2012,10,05,04,31,2.30
2012,10,05,04,32,2.30
2012,10,05,04,33,2.30
2012,10,05,04,34,2.30
2012,10,05,04,35,2.30
2012,10,05,04,36,2.30
2012,10,05,04,37,2.30
2012,10,05,04,38,2.30
2012,10,05,04,39,2.30
2012,10,05,04,40,2.30
2012,10,05,04,41,2.20
2012,10,05,04,42,2.20
2012,10,05,04,43,2.20
2012,10,05,04,44,2.20
2012,10,05,04,45,2.20
2012,10,05,04,46,2.20
2012,10,05,04,47,2.20
2012,10,05,04,48,2.20
2012,10,05,04,49,2.20
2012,10,05,04,50,2.20
2012,10,05,04,51,2.20
2012,10,05,04,52,2.20
2012,10,05,04,53,2.20
2012,10,05,04,54,2.20
2012,10,05,04,55,2.20
2012,10,05,04,56,2.10
2012,10,05,04,57,2.10
2012,10,05,04,58,2.10
2012,10,05,04,59,2.10
2012,10,05,05,00,2.10
2012,10,05,05,01,2.10
2012,10,05,05,02,2.10
2012,10,05,05,03,2.10
2012,10,05,05,04,2.10
2012,10,05,05,05,2.10
2012,10,05,05,06,2.00
2012,10,05,05,07,2.00
2012,10,05,05,08,2.00
2012,10,05,05,09,1.90
2012,10,05,05,10,1.90
2012,10,05,05,11,1.90
2012,10,05,05,12,1.90
2012,10,05,05,13,1.90
2012,10,05,05,14,1.90
2012,10,05,05,15,1.90
2012,10,05,05,16,1.90
2012,10,05,05,17,1.90
2012,10,05,05,18,1.90
2012,10,05,05,19,1.90
2012,10,05,05,20,1.90
2012,10,05,05,21,1.90
2012,10,05,05,22,1.80
2012,10,05,05,23,1.80
2012,10,05,05,24,1.80
2012,10,05,05,25,1.80
2012,10,05,05,26,1.80
2012,10,05,05,27,1.80
2012,10,05,05,28,1.80
2012,10,05,05,29,1.80
2012,10,05,05,30,1.80
2012,10,05,05,31,1.80
2012,10,05,05,32,1.80
2012,10,05,05,33,1.80
2012,10,05,05,34,1.80
2012,10,05,05,35,1.80
2012,10,05,05,36,1.70
2012,10,05,05,37,1.70
2012,10,05,05,38,1.70
2012,10,05,05,39,1.70
2012,10,05,05,40,1.70
2012,10,05,05,41,1.70
2012,10,05,05,42,1.70
2012,10,05,05,43,1.70
2012,10,05,05,44,1.70
2012,10,05,05,45,1.70
2012,10,05,05,46,1.70
2012,10,05,05,47,1.70
2012,10,05,05,48,1.70
2012,10,05,05,49,1.70
2012,10,05,05,50,1.60
2012,10,05,05,51,1.60
2012,10,05,05,52,1.60
2012,10,05,05,53,1.60
2012,10,05,05,54,1.60
2012,10,05,05,55,1.60
2012,10,05,05,56,1.60
2012,10,05,05,57,1.60
2012,10,05,05,58,1.60
2012,10,05,05,59,1.60
2012,10,05,06,00,1.60
2012,10,05,06,01,1.60
2012,10,05,06,02,1.60
2012,10,05,06,03,1.60
2012,10,05,06,04,1.60
2012,10,05,06,05,1.60
2012,10,05,06,06,1.60
2012,10,05,06,07,1.60
2012,10,05,06,08,1.60
2012,10,05,06,09,1.50
2012,10,05,06,10,1.50
2012,10,05,06,11,1.50
2012,10,05,06,12,1.50
2012,10,05,06,13,1.50
2012,10,05,06,14,1.50
2012,10,05,06,15,1.40
2012,10,05,06,16,1.40
2012,10,05,06,17,1.40
2012,10,05,06,18,1.40
2012,10,05,06,19,1.40
2012,10,05,06,20,1.40
2012,10,05,06,21,1.40
2012,10,05,06,22,1.40
2012,10,05,06,23,1.40
2012,10,05,06,24,1.40
2012,10,05,06,25,1.40
2012,10,05,06,26,1.40
2012,10,05,06,27,1.40
2012,10,05,06,28,1.40
2012,10,05,06,29,1.40
2012,10,05,06,30,1.40
2012,10,05,06,31,1.40
2012,10,05,06,32,1.40
2012,10,05,06,33,1.40
2012,10,05,06,34,1.40
2012,10,05,06,35,1.40
2012,10,05,06,36,1.40
2012,10,05,06,37,1.40
2012,10,05,06,38,1.40
2012,10,05,06,39,1.40
2012,10,05,06,40,1.30
2012,10,05,06,41,1.30
2012,10,05,06,42,1.30
2012,10,05,06,43,1.30
2012,10,05,06,44,1.30
2012,10,05,06,45,1.30
2012,10,05,06,46,1.30
2012,10,05,06,47,1.20
2012,10,05,06,48,1.20
2012,10,05,06,49,1.20
2012,10,05,06,50,1.20
2012,10,05,06,51,1.20
2012,10,05,06,52,1.20
2012,10,05,06,53,1.20
2012,10,05,06,54,1.20
2012,10,05,06,55,1.20
2012,10,05,06,56,1.20
2012,10,05,06,57,1.20
2012,10,05,06,58,1.20
2012,10,05,06,59,1.20
2012,10,05,07,00,1.20
2012,10,05,07,01,1.20
2012,10,05,07,02,1.20
2012,10,05,07,03,1.20
2012,10,05,07,04,1.20
2012,10,05,07,05,1.20
2012,10,05,07,06,1.20
2012,10,05,07,07,1.20
2012,10,05,07,08,1.20
2012,10,05,07,09,1.10
2012,10,05,07,10,1.10
2012,10,05,07,11,1.10
2012,10,05,07,12,1.10
2012,10,05,07,13,1.10
2012,10,05,07,14,1.10
2012,10,05,07,15,1.10
2012,10,05,07,16,1.10
2012,10,05,07,17,1.10
2012,10,05,07,18,1.10
2012,10,05,07,19,1.10
2012,10,05,07,20,1.10
2012,10,05,07,21,1.10
2012,10,05,07,22,1.10
2012,10,05,07,23,1.10
2012,10,05,07,24,1.10
2012,10,05,07,25,1.10
2012,10,05,07,26,1.00
2012,10,05,07,27,1.00
2012,10,05,07,28,1.00
2012,10,05,07,29,1.00
2012,10,05,07,30,1.00
2012,10,05,07,31,1.00
2012,10,05,07,32,1.00
2012,10,05,07,33,1.00
2012,10,05,07,34,1.00
2012,10,05,07,35,1.00
2012,10,05,07,36,1.00
2012,10,05,07,37,1.00
2012,10,05,07,38,1.00
2012,10,05,07,39,1.00
2012,10,05,07,40,1.00
2012,10,05,07,41,0.90
2012,10,05,07,42,0.90
2012,10,05,07,43,0.90
2012,10,05,07,44,0.90
2012,10,05,07,45,0.90
2012,10,05,07,46,0.90
2012,10,05,07,47,0.90
2012,10,05,07,48,0.90
2012,10,05,07,49,0.90
2012,10,05,07,50,0.90
2012,10,05,07,51,0.90
2012,10,05,07,52,0.90
2012,10,05,07,53,0.90
2012,10,05,07,54,0.90
2012,10,05,07,55,0.90
2012,10,05,07,56,0.90
2012,10,05,07,57,0.90
2012,10,05,07,58,0.90
2012,10,05,07,59,0.90
2012,10,05,08,00,0.90
2012,10,05,08,01,0.90
2012,10,05,08,02,0.90
2012,10,05,08,03,0.90
2012,10,05,08,04,0.90
2012,10,05,08,05,0.90
2012,10,05,08,06,0.90
2012,10,05,08,07,0.90
2012,10,05,08,08,0.90
2012,10,05,08,09,0.90
2012,10,05,08,10,0.90
2012,10,05,08,11,0.90
2012,10,05,08,12,0.90
2012,10,05,08,13,0.90
2012,10,05,08,14,0.90
2012,10,05,08,15,0.90
2012,10,05,08,16,0.90
2012,10,05,08,17,0.90
2012,10,05,08,18,0.90
2012,10,05,08,19,0.90
2012,10,05,08,20,0.90
2012,10,05,08,21,0.90
2012,10,05,08,22,0.90
2012,10,05,08,23,0.90
2012,10,05,08,24,0.90
2012,10,05,08,25,1.00
2012,10,05,08,26,1.00
2012,10,05,08,27,1.00
2012,10,05,08,28,1.00
2012,10,05,08,29,1.00
2012,10,05,08,30,1.00
2012,10,05,08,31,1.00
2012,10,05,08,32,1.00
2012,10,05,08,33,1.00
2012,10,05,08,34,1.00
2012,10,05,08,35,1.10
2012,10,05,08,36,1.10
2012,10,05,08,37,1.10
2012,10,05,08,38,1.10
2012,10,05,08,39,1.10
2012,10,05,08,40,1.10
2012,10,05,08,41,1.10
2012,10,05,08,42,1.10
2012,10,05,08,43,1.10
2012,10,05,08,44,1.10
2012,10,05,08,45,1.10
2012,10,05,08,46,1.10
2012,10,05,08,47,1.20
2012,10,05,08,48,1.20
2012,10,05,08,49,1.20
2012,10,05,08,50,1.20
2012,10,05,08,51,1.20
2012,10,05,08,52,1.30
2012,10,05,08,53,1.30
2012,10,05,08,54,1.40
2012,10,05,08,55,1.40
2012,10,05,08,56,1.50
2012,10,05,08,57,1.50
2012,10,05,08,58,1.60
2012,10,05,08,59,1.70
2012,10,05,09,00,1.70
2012,10,05,09,01,1.80
2012,10,05,09,02,2.00
2012,10,05,09,03,2.10
2012,10,05,09,04,2.20
2012,10,05,09,05,2.30
2012,10,05,09,06,2.40
2012,10,05,09,07,2.50
2012,10,05,09,08,2.60
2012,10,05,09,09,2.70
2012,10,05,09,10,2.80
2012,10,05,09,11,2.90
2012,10,05,09,12,2.90
2012,10,05,09,13,3.00
2012,10,05,09,14,3.10
2012,10,05,09,15,3.10
2012,10,05,09,16,3.20
2012,10,05,09,17,3.20
2012,10,05,09,18,3.20
2012,10,05,09,19,3.30
2012,10,05,09,20,3.30
2012,10,05,09,21,3.30
2012,10,05,09,22,3.40
2012,10,05,09,23,3.50
2012,10,05,09,24,3.50
2012,10,05,09,25,3.60
2012,10,05,09,26,3.70
2012,10,05,09,27,3.80
2012,10,05,09,28,3.90
2012,10,05,09,29,4.00
2012,10,05,09,30,4.10
2012,10,05,09,31,4.20
2012,10,05,09,32,4.30
2012,10,05,09,33,4.40
2012,10,05,09,34,4.50
2012,10,05,09,35,4.60
2012,10,05,09,36,4.70
2012,10,05,09,37,4.80
2012,10,05,09,38,4.90
2012,10,05,09,39,5.00
2012,10,05,09,40,5.10
2012,10,05,09,41,5.30
2012,10,05,09,42,5.40
2012,10,05,09,43,5.50
2012,10,05,09,44,5.60
2012,10,05,09,45,5.70
2012,10,05,09,46,5.80
2012,10,05,09,47,5.90
2012,10,05,09,48,6.00
2012,10,05,09,49,6.10
2012,10,05,09,50,6.30
2012,10,05,09,51,6.40
2012,10,05,09,52,6.40
2012,10,05,09,53,6.50
2012,10,05,09,54,6.60
2012,10,05,09,55,6.60
2012,10,05,09,56,6.70
2012,10,05,09,57,6.70
2012,10,05,09,58,6.70
2012,10,05,09,59,6.80
2012,10,05,10,00,6.80
2012,10,05,10,01,6.90
2012,10,05,10,02,6.90
2012,10,05,10,03,7.00
2012,10,05,10,04,7.10
2012,10,05,10,05,7.10
2012,10,05,10,06,7.20
2012,10,05,10,07,7.20
2012,10,05,10,08,7.30
2012,10,05,10,09,7.40
2012,10,05,10,10,7.40
2012,10,05,10,11,7.50
2012,10,05,10,12,7.60
2012,10,05,10,13,7.60
2012,10,05,10,14,7.70
2012,10,05,10,15,7.80
2012,10,05,10,16,7.80
2012,10,05,10,17,7.90
2012,10,05,10,18,8.00
2012,10,05,10,19,8.00
2012,10,05,10,20,8.10
2012,10,05,10,21,8.20
2012,10,05,10,22,8.30
2012,10,05,10,23,8.30
2012,10,05,10,24,8.40
2012,10,05,10,25,8.40
2012,10,05,10,26,8.50
2012,10,05,10,27,8.60
2012,10,05,10,28,8.60
2012,10,05,10,29,8.60
2012,10,05,10,30,8.60
2012,10,05,10,31,8.60
2012,10,05,10,32,8.60
2012,10,05,10,33,8.70
2012,10,05,10,34,8.70
2012,10,05,10,35,8.80
2012,10,05,10,36,8.80
2012,10,05,10,37,8.90
2012,10,05,10,38,8.90
2012,10,05,10,39,9.00
2012,10,05,10,40,9.00
2012,10,05,10,41,9.10
2012,10,05,10,42,9.20
2012,10,05,10,43,9.20
2012,10,05,10,44,9.30
2012,10,05,10,45,9.40
2012,10,05,10,46,9.50
2012,10,05,10,47,9.60
2012,10,05,10,48,9.60
2012,10,05,10,49,9.70
2012,10,05,10,50,9.70
2012,10,05,10,51,9.80
2012,10,05,10,52,9.90
2012,10,05,10,53,10.00
2012,10,05,10,54,10.10
2012,10,05,10,55,10.20
2012,10,05,10,56,10.20
2012,10,05,10,57,10.20
2012,10,05,10,58,10.20
2012,10,05,10,59,10.20
2012,10,05,11,00,10.20
2012,10,05,11,01,10.20
2012,10,05,11,02,10.20
2012,10,05,11,03,10.20
2012,10,05,11,04,10.20
2012,10,05,11,05,10.20
2012,10,05,11,06,10.30
2012,10,05,11,07,10.40
2012,10,05,11,08,10.50
2012,10,05,11,09,10.60
2012,10,05,11,10,10.70
2012,10,05,11,11,10.80
2012,10,05,11,12,10.80
2012,10,05,11,13,10.90
2012,10,05,11,14,10.90
2012,10,05,11,15,10.90
2012,10,05,11,16,11.00
2012,10,05,11,17,11.00
2012,10,05,11,18,11.10
2012,10,05,11,19,11.10
2012,10,05,11,20,11.10
2012,10,05,11,21,11.20
2012,10,05,11,22,11.20
2012,10,05,11,23,11.30
2012,10,05,11,24,11.40
2012,10,05,11,25,11.50
2012,10,05,11,26,11.60
2012,10,05,11,27,11.70
2012,10,05,11,28,11.70
2012,10,05,11,29,11.80
2012,10,05,11,30,11.80
2012,10,05,11,31,11.80
2012,10,05,11,32,11.80
2012,10,05,11,33,11.80
2012,10,05,11,34,11.80
2012,10,05,11,35,11.80
2012,10,05,11,36,11.80
2012,10,05,11,37,11.90
2012,10,05,11,38,11.90
2012,10,05,11,39,12.00
2012,10,05,11,40,12.10
2012,10,05,11,41,12.10
2012,10,05,11,42,12.20
2012,10,05,11,43,12.30
2012,10,05,11,44,12.30
2012,10,05,11,45,12.40
2012,10,05,11,46,12.50
2012,10,05,11,47,12.60
2012,10,05,11,48,12.60
2012,10,05,11,49,12.70
2012,10,05,11,50,12.70
2012,10,05,11,51,12.80
2012,10,05,11,52,12.80
2012,10,05,11,53,12.80
2012,10,05,11,54,12.80
2012,10,05,11,55,12.90
2012,10,05,11,56,12.90
2012,10,05,11,57,12.90
2012,10,05,11,58,12.90
2012,10,05,11,59,13.00
2012,10,05,12,00,13.10
2012,10,05,12,01,13.10
2012,10,05,12,02,13.30
2012,10,05,12,03,13.40
2012,10,05,12,04,13.40
2012,10,05,12,05,13.50
2012,10,05,12,06,13.50
2012,10,05,12,07,13.60
2012,10,05,12,08,13.60
2012,10,05,12,09,13.70
2012,10,05,12,10,13.80
2012,10,05,12,11,13.80
2012,10,05,12,12,13.90
2012,10,05,12,13,14.00
2012,10,05,12,14,14.10
2012,10,05,12,15,14.20
2012,10,05,12,16,14.40
2012,10,05,12,17,14.50
2012,10,05,12,18,14.60
2012,10,05,12,19,14.70
2012,10,05,12,20,14.70
2012,10,05,12,21,14.70
2012,10,05,12,22,14.80
2012,10,05,12,23,14.80
2012,10,05,12,24,14.80
2012,10,05,12,25,14.90
2012,10,05,12,26,14.90
2012,10,05,12,27,15.00
2012,10,05,12,28,15.10
2012,10,05,12,29,15.20
2012,10,05,12,30,15.20
2012,10,05,12,31,15.30
2012,10,05,12,32,15.40
2012,10,05,12,33,15.40
2012,10,05,12,34,15.40
2012,10,05,12,35,15.50
2012,10,05,12,36,15.50
2012,10,05,12,37,15.60
2012,10,05,12,38,15.60
2012,10,05,12,39,15.60
2012,10,05,12,40,15.60
2012,10,05,12,41,15.70
2012,10,05,12,42,15.80
2012,10,05,12,43,15.80
2012,10,05,12,44,15.90
2012,10,05,12,45,15.90
2012,10,05,12,46,15.90
2012,10,05,12,47,15.90
2012,10,05,12,48,16.00
2012,10,05,12,49,16.00
2012,10,05,12,50,16.10
2012,10,05,12,51,16.20
2012,10,05,12,52,16.30
2012,10,05,12,53,16.30
2012,10,05,12,54,16.40
2012,10,05,12,55,16.40
2012,10,05,12,56,16.40
2012,10,05,12,57,16.40
2012,10,05,12,58,16.40
2012,10,05,12,59,16.40
2012,10,05,13,00,16.40
2012,10,05,13,01,16.40
2012,10,05,13,02,16.40
2012,10,05,13,03,16.50
2012,10,05,13,04,16.50
2012,10,05,13,05,16.60
2012,10,05,13,06,16.60
2012,10,05,13,07,16.60
2012,10,05,13,08,16.70
2012,10,05,13,09,16.80
2012,10,05,13,10,16.80
2012,10,05,13,11,16.90
2012,10,05,13,12,17.00
2012,10,05,13,13,17.10
2012,10,05,13,14,17.20
2012,10,05,13,15,17.30
2012,10,05,13,16,17.30
2012,10,05,13,17,17.30
2012,10,05,13,18,17.40
2012,10,05,13,19,17.50
2012,10,05,13,20,17.60
2012,10,05,13,21,17.70
2012,10,05,13,22,17.80
2012,10,05,13,23,17.90
2012,10,05,13,24,18.00
2012,10,05,13,25,18.10
2012,10,05,13,26,18.10
2012,10,05,13,27,18.10
2012,10,05,13,28,18.10
2012,10,05,13,29,18.00
2012,10,05,13,30,18.00
2012,10,05,13,31,18.00
2012,10,05,13,32,17.90
2012,10,05,13,33,17.90
2012,10,05,13,34,17.90
2012,10,05,13,35,17.90
2012,10,05,13,36,17.90
2012,10,05,13,37,17.90
2012,10,05,13,38,17.90
2012,10,05,13,39,17.90
2012,10,05,13,40,17.90
2012,10,05,13,41,18.00
2012,10,05,13,42,18.00
2012,10,05,13,43,18.00
2012,10,05,13,44,18.10
2012,10,05,13,45,18.10
2012,10,05,13,46,18.20
2012,10,05,13,47,18.20
2012,10,05,13,48,18.30
2012,10,05,13,49,18.40
2012,10,05,13,50,18.50
2012,10,05,13,51,18.60
2012,10,05,13,52,18.70
2012,10,05,13,53,18.90
2012,10,05,13,54,19.00
2012,10,05,13,55,19.10
2012,10,05,13,56,19.20
2012,10,05,13,57,19.30
2012,10,05,13,58,19.40
2012,10,05,13,59,19.40
2012,10,05,14,00,19.50
2012,10,05,14,01,19.50
2012,10,05,14,02,19.50
2012,10,05,14,03,19.50
2012,10,05,14,04,19.40
2012,10,05,14,05,19.50
2012,10,05,14,06,19.60
2012,10,05,14,07,19.60
2012,10,05,14,08,19.60
2012,10,05,14,09,19.70
2012,10,05,14,10,19.70
2012,10,05,14,11,19.70
2012,10,05,14,12,19.70
2012,10,05,14,13,19.70
2012,10,05,14,14,19.70
2012,10,05,14,15,19.80
2012,10,05,14,16,19.80
2012,10,05,14,17,19.90
2012,10,05,14,18,19.90
2012,10,05,14,19,20.00
2012,10,05,14,20,20.00
2012,10,05,14,21,20.10
2012,10,05,14,22,20.10
2012,10,05,14,23,20.10
2012,10,05,14,24,20.10
2012,10,05,14,25,20.10
2012,10,05,14,26,20.10
2012,10,05,14,27,20.10
2012,10,05,14,28,20.10
2012,10,05,14,29,20.10
2012,10,05,14,30,20.10
2012,10,05,14,31,20.20
2012,10,05,14,32,20.20
2012,10,05,14,33,20.30
2012,10,05,14,34,20.30
2012,10,05,14,35,20.40
2012,10,05,14,36,20.50
2012,10,05,14,37,20.60
2012,10,05,14,38,20.70
2012,10,05,14,39,20.80
2012,10,05,14,40,20.90
2012,10,05,14,41,21.00
2012,10,05,14,42,21.20
2012,10,05,14,43,21.30
2012,10,05,14,44,21.30
2012,10,05,14,45,21.40
2012,10,05,14,46,21.50
2012,10,05,14,47,21.70
2012,10,05,14,48,21.80
2012,10,05,14,49,21.80
2012,10,05,14,50,21.90
2012,10,05,14,51,21.90
2012,10,05,14,52,21.90
2012,10,05,14,53,21.90
2012,10,05,14,54,21.80
2012,10,05,14,55,21.80
2012,10,05,14,56,21.80
2012,10,05,14,57,21.80
2012,10,05,14,58,21.80
2012,10,05,14,59,21.80
2012,10,05,15,00,21.90
2012,10,05,15,01,21.90
2012,10,05,15,02,21.90
2012,10,05,15,03,21.90
2012,10,05,15,04,21.90
2012,10,05,15,05,21.90
2012,10,05,15,06,21.90
2012,10,05,15,07,21.90
2012,10,05,15,08,21.90
2012,10,05,15,09,21.90
2012,10,05,15,10,22.00
2012,10,05,15,11,22.00
2012,10,05,15,12,21.90
2012,10,05,15,13,21.90
2012,10,05,15,14,21.80
2012,10,05,15,15,21.80
2012,10,05,15,16,21.80
2012,10,05,15,17,21.70
2012,10,05,15,18,21.70
2012,10,05,15,19,21.70
2012,10,05,15,20,21.70
2012,10,05,15,21,21.70
2012,10,05,15,22,21.80
2012,10,05,15,23,21.80
2012,10,05,15,24,21.80
2012,10,05,15,25,21.80
2012,10,05,15,26,21.90
2012,10,05,15,27,21.90
2012,10,05,15,28,22.00
2012,10,05,15,29,22.10
2012,10,05,15,30,22.10
2012,10,05,15,31,22.10
2012,10,05,15,32,22.20
2012,10,05,15,33,22.20
2012,10,05,15,34,22.30
2012,10,05,15,35,22.40
2012,10,05,15,36,22.50
2012,10,05,15,37,22.50
2012,10,05,15,38,22.50
2012,10,05,15,39,22.40
2012,10,05,15,40,22.40
2012,10,05,15,41,22.40
2012,10,05,15,42,22.40
2012,10,05,15,43,22.30
2012,10,05,15,44,22.20
2012,10,05,15,45,22.10
2012,10,05,15,46,22.10
2012,10,05,15,47,22.10
2012,10,05,15,48,22.00
2012,10,05,15,49,22.00
2012,10,05,15,50,22.00
2012,10,05,15,51,21.90
2012,10,05,15,52,21.80
2012,10,05,15,53,21.80
2012,10,05,15,54,21.70
2012,10,05,15,55,21.70
2012,10,05,15,56,21.70
2012,10,05,15,57,21.70
2012,10,05,15,58,21.70
2012,10,05,15,59,21.70
2012,10,05,16,00,21.70
2012,10,05,16,01,21.70
2012,10,05,16,02,21.80
2012,10,05,16,03,21.80
2012,10,05,16,04,21.80
2012,10,05,16,05,21.80
2012,10,05,16,06,21.80
2012,10,05,16,07,21.80
2012,10,05,16,08,21.70
2012,10,05,16,09,21.70
2012,10,05,16,10,21.60
2012,10,05,16,11,21.60
2012,10,05,16,12,21.60
2012,10,05,16,13,21.60
2012,10,05,16,14,21.70
2012,10,05,16,15,21.70
2012,10,05,16,16,21.70
2012,10,05,16,17,21.70
2012,10,05,16,18,21.60
2012,10,05,16,19,21.60
2012,10,05,16,20,21.60
2012,10,05,16,21,21.60
2012,10,05,16,22,21.60
2012,10,05,16,23,21.60
2012,10,05,16,24,21.60
2012,10,05,16,25,21.60
2012,10,05,16,26,21.50
2012,10,05,16,27,21.50
2012,10,05,16,28,21.50
2012,10,05,16,29,21.50
2012,10,05,16,30,21.40
2012,10,05,16,31,21.40
2012,10,05,16,32,21.40
2012,10,05,16,33,21.40
2012,10,05,16,34,21.30
2012,10,05,16,35,21.30
2012,10,05,16,36,21.30
2012,10,05,16,37,21.30
2012,10,05,16,38,21.30
2012,10,05,16,39,21.20
2012,10,05,16,40,21.20
2012,10,05,16,41,21.20
2012,10,05,16,42,21.20
2012,10,05,16,43,21.20
2012,10,05,16,44,21.20
2012,10,05,16,45,21.10
2012,10,05,16,46,21.10
2012,10,05,16,47,21.10
2012,10,05,16,48,21.10
2012,10,05,16,49,21.10
2012,10,05,16,50,21.10
2012,10,05,16,51,21.10
2012,10,05,16,52,21.00
2012,10,05,16,53,20.90
2012,10,05,16,54,20.80
2012,10,05,16,55,20.80
2012,10,05,16,56,20.70
2012,10,05,16,57,20.70
2012,10,05,16,58,20.70
2012,10,05,16,59,20.70
2012,10,05,17,00,20.70
2012,10,05,17,01,20.60
2012,10,05,17,02,20.60
2012,10,05,17,03,20.50
2012,10,05,17,04,20.40
2012,10,05,17,05,20.40
2012,10,05,17,06,20.30
2012,10,05,17,07,20.30
2012,10,05,17,08,20.20
2012,10,05,17,09,20.20
2012,10,05,17,10,20.20
2012,10,05,17,11,20.10
2012,10,05,17,12,20.10
2012,10,05,17,13,20.00
2012,10,05,17,14,20.00
2012,10,05,17,15,19.90
2012,10,05,17,16,19.90
2012,10,05,17,17,19.80
2012,10,05,17,18,19.80
2012,10,05,17,19,19.80
2012,10,05,17,20,19.70
2012,10,05,17,21,19.70
2012,10,05,17,22,19.70
2012,10,05,17,23,19.60
2012,10,05,17,24,19.60
2012,10,05,17,25,19.60
2012,10,05,17,26,19.50
2012,10,05,17,27,19.50
2012,10,05,17,28,19.40
2012,10,05,17,29,19.40
2012,10,05,17,30,19.30
2012,10,05,17,31,19.30
2012,10,05,17,32,19.10
2012,10,05,17,33,19.00
2012,10,05,17,34,18.80
2012,10,05,17,35,18.60
2012,10,05,17,36,18.40
2012,10,05,17,37,18.20
2012,10,05,17,38,18.10
2012,10,05,17,39,17.90
2012,10,05,17,40,17.80
2012,10,05,17,41,17.60
2012,10,05,17,42,17.50
2012,10,05,17,43,17.30
2012,10,05,17,44,17.20
2012,10,05,17,45,17.00
2012,10,05,17,46,16.90
2012,10,05,17,47,16.80